Location: *
(49.0044°N, 9.5056°E)
Time: 12:18:57
(UTC+00:00)

Nadezhda 3 Rocket - Pass Details

Date: 22 September 2019
Orbit: 958 x 999 km, 82.9° (Epoch: 15 October)

Event Time Altitude Azimuth Distance (km) Brightness Sun altitude
Exits shadow 20:30:15 54° 219° (SW) 1,164 4.3 -29.5°
Maximum altitude 20:31:39 72° 281° (WNW) 1,019 4.1 -29.6°
Drops below altitude 10° 20:37:53 10° 6° (N) 2,729 6.7 -30.4°
Sets 20:40:26 0° 9° (N) 3,687 7.5 -30.7°
